EKCH Airport Information

Runway Information
Runway 04L Length 11811 ft width 148 ft
Elevation 13 ft Threshold 0 ft Heading 41
Runway 22R Length 11811 ft Width 148 ft
Elevation 14 ft Threshold 1967 ft Heading 221
Runway 04R Length 10827 ft width 148 ft
Elevation 12 ft Threshold 0 ft Heading 41
Runway 22L Length 10827 ft Width 148 ft
Elevation 8 ft Threshold 0 ft Heading 221
Runway 12 Length 10072 ft width 148 ft
Elevation 13 ft Threshold 2313 ft Heading 123
Runway 30 Length 10072 ft Width 148 ft
Elevation 8 ft Threshold 886 ft Heading 303
Airport Frequencies
Type APP Name Kastrup Ar Frequency 118.45 MHZ
Type APP Name Copenhagen Frequency 119.8 MHZ
Type APP Name Kastrup Fi Frequency 120.2 MHZ
Type ATIS Name Kastrup Ar Frequency 122.75 MHZ
Type ATIS Name Kastrup De Frequency 122.85 MHZ
Type DEL Name Kastrup Cl Frequency 119.9 MHZ
Type DEP Name Kastrup De Frequency 120.25 MHZ
Type DEP Name Kastrup De Frequency 124.975 MHZ
Type GND Name Kastrup Ap Frequency 121.625 MHZ
Type GND Name Kastrup Ap Frequency 121.725 MHZ
Type GND Name Kastrup Ap Frequency 121.9 MHZ
Type TWR Name Kastrup To Frequency 118.1 MHZ
Type TWR Name Kastrup To Frequency 118.575 MHZ
Type TWR Name Kastrup To Frequency 118.7 MHZ
Type TWR Name Kastrup To Frequency 119.35 MHZ
Type TWR Name Kastrup To Frequency 121.825 MHZ
Airport Navaids
Type VOR-DME Name Kastrup Frequency 112500 KHZ
Airport Weather Information & NOTAM
ADDS - METARS form results

(1316 UTC 22 June 2018)
 
METAR text: EKCH 221250Z 29012KT 250V330 9999 SCT047 19/07 Q1012 NOSIG
Conditions at: EKCH (COPENHAGEN/KASTR, DK) observed 1250 UTC 22 June 2018
Temperature: 19.0°C (66°F)
Dewpoint: 7.0°C (45°F) [RH = 46%]
Pressure (altimeter): 29.88 inches Hg (1012.0 mb)
Winds: from the WNW (290 degrees) at 14 MPH (12 knots; 6.2 m/s)
Visibility: 6 or more miles (10+ km)
Ceiling: at least 12,000 feet AGL
Clouds: scattered clouds at 4700 feet AGL
Weather: no significant weather observed at this time

METAR text: EKCH 221220Z 28011KT 9999 SCT045 19/08 Q1012 NOSIG
Conditions at: EKCH (COPENHAGEN/KASTR, DK) observed 1220 UTC 22 June 2018
Temperature: 19.0°C (66°F)
Dewpoint: 8.0°C (46°F) [RH = 49%]
Pressure (altimeter): 29.88 inches Hg (1012.0 mb)
Winds: from the W (280 degrees) at 13 MPH (11 knots; 5.7 m/s)
Visibility: 6 or more miles (10+ km)
Ceiling: at least 12,000 feet AGL
Clouds: scattered clouds at 4500 feet AGL
Weather: no significant weather observed at this time